QPF
0.00 0.00 0.02 0.02 0.02 0.02 0.01 0.01 0.01 0.01 0.01 0.01 0.01 0.01 0.01 0.01 0.01 0.01 0.01 0.01 0.01 0.01 0.01 0.01 0.01 0.01 0.01 0.01 0.00 0.00 0.00 0.00 0.00 0.00 0.01 0.01 0.01 0.01 0.01 0.01 0.01 0.01 0.01
0.00 0.00 0.02 0.02 0.02 0.02 0.01 0.01 0.01 0.01 0.01 0.01 0.01 0.01 0.01 0.01 0.01 0.01 0.01 0.01 0.01 0.01 0.01 0.01 0.01 0.01 0.01 0.01 0.00 0.00 0.00 0.00 0.00 0.00 0.00 0.01 0.01 0.01 0.01 0.01 0.01 0.01 0.02
0.00 0.00 0.01 0.02 0.02 0.02 0.01 0.01 0.01 0.01 0.01 0.01 0.01 0.01 0.01 0.01 0.01 0.01 0.01 0.01 0.01 0.01 0.01 0.01 0.01 0.00 0.00 0.00 0.00 0.00 0.00 0.00 0.00 0.00 0.00 0.00 0.01 0.02 0.01 0.01 0.01 0.02 0.02
0.00 0.00 0.01 0.02 0.02 0.02 0.01 0.01 0.01 0.01 0.01 0.01 0.01 0.01 0.01 0.01 0.01 0.01 0.02 0.01 0.01 0.00 0.00 0.00 0.00 0.00 0.00 0.00 0.00 0.00 0.00 0.00 0.00 0.00 0.00 0.00 0.01 0.02 0.02 0.02 0.02 0.02 0.03
0.00 0.00 0.01 0.02 0.02 0.02 0.01 0.01 0.01 0.01 0.01 0.01 0.01 0.01 0.01 0.01 0.01 0.01 0.01 0.01 0.00 0.00 0.00 0.00 0.00 0.00 0.00 0.00 0.00 0.00 0.00 0.00 0.00 0.00 0.00 0.00 0.00 0.01 0.01 0.01 0.01 0.01 0.01
0.00 0.00 0.01 0.02 0.02 0.02 0.01 0.01 0.01 0.01 0.01 0.01 0.01 0.01 0.01 0.01 0.01 0.01 0.01 0.01 0.00 0.00 0.00 0.00 0.00 0.00 0.00 0.00 0.00 0.00 0.00 0.00 0.00 0.00 0.00 0.00 0.00 0.01 0.01 0.01 0.01 0.01 0.01
0.00 0.01 0.02 0.02 0.02 0.02 0.01 0.01 0.01 0.01 0.01 0.01 0.01 0.01 0.01 0.01 0.01 0.01 0.00 0.00 0.00 0.00 0.00 0.00 0.00 0.00 0.00 0.00 0.00 0.00 0.00 0.00 0.00 0.00 0.00 0.00 0.01 0.01 0.01 0.01 0.01 0.01 0.01
0.00 0.01 0.02 0.02 0.02 0.02 0.01 0.01 0.01 0.01 0.01 0.01 0.01 0.01 0.01 0.01 0.01 0.00 0.00 0.00 0.01 0.01 0.01 0.00 0.00 0.00 0.00 0.00 0.00 0.00 0.00 0.00 0.00 0.00 0.00 0.00 0.00 0.01 0.01 0.01 0.00 0.01 0.01
0.00 0.01 0.02 0.02 0.02 0.02 0.01 0.01 0.01 0.01 0.01 0.01 0.01 0.01 0.01 0.01 0.00 0.01 0.01 0.01 0.01 0.00 0.00 0.00 0.00 0.00 0.00 0.00 0.00 0.00 0.00 0.00 0.00 0.00 0.00 0.00 0.00 0.01 0.01 0.00 0.01 0.01 0.01
0.01 0.01 0.02 0.02 0.01 0.01 0.01 0.01 0.01 0.01 0.01 0.01 0.01 0.01 0.00 0.00 0.00 0.00 0.00 0.00 0.00 0.00 0.00 0.00 0.00 0.00 0.00 0.00 0.00 0.00 0.00 0.00 0.00 0.00 0.00 0.00 0.00 0.01 0.00 0.00 0.00 0.00 0.01
0.01 0.02 0.02 0.02 0.01 0.01 0.01 0.01 0.01 0.01 0.01 0.01 0.00 0.00 0.00 0.00 0.00 0.00 0.00 0.00 0.00 0.00 0.00 0.00 0.00 0.00 0.00 0.00 0.00 0.00 0.00 0.00 0.00 0.00 0.00 0.00 0.00 0.00 0.00 0.00 0.00 0.00 0.00
0.01 0.02 0.02 0.01 0.01 0.01 0.01 0.01 0.01 0.01 0.01 0.00 0.00 0.00 0.00 0.00 0.00 0.00 0.00 0.00 0.00 0.00 0.00 0.00 0.00 0.00 0.00 0.00 0.00 0.00 0.00 0.00 0.00 0.00 0.00 0.00 0.00 0.00 0.00 0.00 0.00 0.00 0.00
0.01 0.01 0.01 0.01 0.01 0.01 0.01 0.01 0.01 0.01 0.00 0.00 0.00 0.00 0.00 0.00 0.00 0.00 0.00 0.00 0.00 0.00 0.00 0.00 0.00 0.00 0.00 0.00 0.00 0.00 0.00 0.00 0.00 0.00 0.00 0.00 0.00 0.00 0.00 0.00 0.00 0.00 0.00
0.01 0.01 0.01 0.01 0.01 0.01 0.01 0.00 0.01 0.01 0.00 0.00 0.00 0.00 0.00 0.00 0.00 0.00 0.00 0.00 0.00 0.00 0.00 0.00 0.00 0.00 0.00 0.00 0.00 0.00 0.00 0.00 0.00 0.00 0.00 0.00 0.00 0.00 0.00 0.00 0.00 0.00 0.00
0.02 0.02 0.02 0.01 0.01 0.01 0.01 0.00 0.01 0.00 0.00 0.00 0.00 0.00 0.00 0.00 0.00 0.00 0.00 0.00 0.00 0.00 0.00 0.00 0.00 0.00 0.00 0.00 0.00 0.00 0.00 0.00 0.00 0.00 0.00 0.00 0.00 0.00 0.00 0.00 0.01 0.00 0.00
0.02 0.02 0.02 0.02 0.01 0.01 0.01 0.00 0.00 0.00 0.00 0.00 0.00 0.00 0.00 0.00 0.00 0.00 0.00 0.00 0.00 0.00 0.00 0.00 0.00 0.00 0.00 0.00 0.00 0.00 0.00 0.00 0.00 0.00 0.00 0.00 0.00 0.00 0.00 0.00 0.00 0.00 0.00
0.02 0.03 0.03 0.02 0.01 0.01 0.01 0.01 0.01 0.00 0.00 0.00 0.00 0.00 0.00 0.00 0.00 0.00 0.00 0.00 0.00 0.00 0.00 0.00 0.00 0.00 0.00 0.00 0.00 0.00 0.00 0.00 0.00 0.00 0.00 0.00 0.00 0.00 0.00 0.00 0.00 0.00 0.00
0.04 0.03 0.03 0.03 0.02 0.02 0.01 0.01 0.01 0.01 0.00 0.00 0.00 0.00 0.00 0.00 0.00 0.00 0.00 0.00 0.00 0.00 0.00 0.00 0.00 0.00 0.00 0.00 0.00 0.00 0.00 0.00 0.00 0.00 0.00 0.00 0.00 0.00 0.00 0.00 0.00 0.00 0.00
0.06 0.04 0.04 0.03 0.02 0.02 0.01 0.01 0.01 0.01 0.00 0.00 0.00 0.00 0.00 0.00 0.00 0.00 0.00 0.00 0.00 0.00 0.00 0.00 0.00 0.00 0.00 0.00 0.00 0.00 0.00 0.00 0.00 0.00 0.00 0.00 0.00 0.00 0.00 0.00 0.00 0.00 0.00
0.07 0.07 0.05 0.04 0.03 0.02 0.02 0.02 0.02 0.01 0.01 0.00 0.00 0.00 0.00 0.00 0.00 0.00 0.00 0.00 0.00 0.00 0.00 0.00 0.00 0.00 0.00 0.00 0.00 0.00 0.00 0.00 0.00 0.00 0.00 0.00 0.00 0.00 0.00 0.00 0.00 0.00 0.00
0.06 0.08 0.08 0.06 0.04 0.03 0.02 0.02 0.02 0.01 0.01 0.00 0.00 0.00 0.00 0.00 0.00 0.00 0.00 0.00 0.00 0.00 0.00 0.00 0.00 0.00 0.00 0.00 0.00 0.00 0.00 0.00 0.00 0.00 0.00 0.00 0.00 0.00 0.00 0.00 0.00 0.00 0.00
0.03 0.05 0.07 0.07 0.05 0.03 0.02 0.01 0.01 0.01 0.01 0.01 0.00 0.00 0.00 0.00 0.00 0.00 0.00 0.00 0.00 0.00 0.00 0.00 0.00 0.00 0.00 0.00 0.00 0.00 0.00 0.00 0.00 0.00 0.00 0.00 0.00 0.00 0.00 0.00 0.00 0.00 0.00
0.02 0.03 0.04 0.06 0.05 0.04 0.03 0.02 0.02 0.02 0.01 0.01 0.00 0.00 0.00 0.00 0.00 0.00 0.00 0.00 0.00 0.00 0.00 0.00 0.00 0.00 0.00 0.00 0.00 0.00 0.00 0.00 0.00 0.00 0.00 0.00 0.00 0.00 0.00 0.00 0.00 0.00 0.00
0.01 0.02 0.04 0.05 0.06 0.05 0.04 0.02 0.01 0.01 0.01 0.00 0.00 0.00 0.00 0.00 0.00 0.00 0.00 0.00 0.00 0.00 0.00 0.00 0.00 0.00 0.00 0.00 0.00 0.00 0.00 0.00 0.00 0.00 0.00 0.00 0.00 0.00 0.00 0.00 0.00 0.00 0.00
0.00 0.01 0.03 0.06 0.06 0.06 0.05 0.03 0.01 0.00 0.00 0.00 0.00 0.00 0.00 0.00 0.00 0.00 0.00 0.00 0.00 0.00 0.00 0.00 0.00 0.00 0.00 0.00 0.00 0.00 0.00 0.00 0.00 0.00 0.00 0.00 0.00 0.00 0.00 0.00 0.00 0.00 0.00
0.01 0.01 0.01 0.04 0.05 0.06 0.07 0.06 0.03 0.01 0.01 0.00 0.00 0.00 0.00 0.00 0.00 0.00 0.00 0.00 0.00 0.00 0.00 0.00 0.00 0.00 0.00 0.00 0.00 0.00 0.00 0.00 0.01 0.00 0.01 0.00 0.00 0.00 0.00 0.00 0.00 0.00 0.00
MSLP
1006.50 1006.24 1006.30 1006.65 1007.22 1007.90 1008.60 1009.23 1009.74 1010.11 1010.38 1010.59 1010.80 1011.07 1011.42 1011.84 1012.30 1012.77 1013.19 1013.55 1013.83 1014.04 1014.22 1014.40 1014.61 1014.85 1015.12 1015.41 1015.69 1015.94 1016.14 1016.29 1016.40 1016.47 1016.53 1016.58 1016.63 1016.66 1016.69 1016.69 1016.68 1016.65 1016.61
1006.10 1005.90 1005.99 1006.37 1006.96 1007.67 1008.41 1009.09 1009.67 1010.11 1010.45 1010.73 1011.01 1011.33 1011.72 1012.16 1012.63 1013.10 1013.52 1013.88 1014.17 1014.39 1014.58 1014.76 1014.96 1015.19 1015.45 1015.72 1015.98 1016.21 1016.40 1016.54 1016.65 1016.72 1016.77 1016.80 1016.83 1016.85 1016.85 1016.84 1016.82 1016.80 1016.79
1005.68 1005.54 1005.69 1006.11 1006.73 1007.48 1008.27 1009.00 1009.64 1010.16 1010.58 1010.93 1011.26 1011.62 1012.02 1012.46 1012.92 1013.38 1013.79 1014.15 1014.44 1014.67 1014.87 1015.07 1015.27 1015.49 1015.74 1015.99 1016.24 1016.46 1016.65 1016.80 1016.90 1016.97 1017.02 1017.04 1017.04 1017.03 1017.01 1016.99 1016.98 1016.97 1016.99
1005.31 1005.26 1005.47 1005.94 1006.60 1007.39 1008.21 1008.99 1009.68 1010.25 1010.73 1011.12 1011.49 1011.87 1012.26 1012.69 1013.13 1013.57 1013.97 1014.33 1014.63 1014.88 1015.10 1015.32 1015.53 1015.76 1016.01 1016.26 1016.50 1016.73 1016.92 1017.08 1017.20 1017.27 1017.31 1017.31 1017.30 1017.26 1017.22 1017.19 1017.18 1017.19 1017.23
1005.06 1005.10 1005.39 1005.91 1006.60 1007.41 1008.24 1009.04 1009.75 1010.35 1010.85 1011.28 1011.66 1012.04 1012.42 1012.84 1013.26 1013.68 1014.08 1014.44 1014.76 1015.04 1015.30 1015.54 1015.78 1016.03 1016.28 1016.54 1016.79 1017.02 1017.23 1017.40 1017.53 1017.62 1017.65 1017.65 1017.62 1017.56 1017.51 1017.47 1017.46 1017.49 1017.56
1004.99 1005.12 1005.47 1006.03 1006.74 1007.53 1008.35 1009.13 1009.83 1010.43 1010.93 1011.36 1011.75 1012.12 1012.51 1012.91 1013.32 1013.73 1014.14 1014.52 1014.87 1015.19 1015.49 1015.77 1016.04 1016.31 1016.58 1016.85 1017.11 1017.36 1017.58 1017.77 1017.91 1018.00 1018.05 1018.04 1018.00 1017.93 1017.87 1017.83 1017.83 1017.88 1017.97
1005.10 1005.31 1005.71 1006.28 1006.97 1007.73 1008.50 1009.23 1009.89 1010.46 1010.95 1011.38 1011.78 1012.16 1012.55 1012.95 1013.37 1013.79 1014.21 1014.62 1015.01 1015.37 1015.71 1016.03 1016.34 1016.63 1016.91 1017.19 1017.46 1017.71 1017.95 1018.15 1018.31 1018.41 1018.46 1018.46 1018.42 1018.35 1018.29 1018.26 1018.27 1018.34 1018.45
1005.37 1005.63 1006.05 1006.61 1007.26 1007.96 1008.65 1009.31 1009.92 1010.46 1010.94 1011.37 1011.78 1012.19 1012.60 1013.03 1013.46 1013.90 1014.34 1014.78 1015.19 1015.59 1015.97 1016.32 1016.65 1016.96 1017.26 1017.54 1017.81 1018.07 1018.31 1018.51 1018.68 1018.80 1018.86 1018.87 1018.84 1018.79 1018.74 1018.72 1018.75 1018.83 1018.96
1005.74 1006.02 1006.44 1006.96 1007.55 1008.17 1008.78 1009.37 1009.92 1010.43 1010.91 1011.37 1011.82 1012.27 1012.73 1013.18 1013.64 1014.11 1014.56 1015.01 1015.44 1015.86 1016.25 1016.63 1016.98 1017.30 1017.60 1017.88 1018.15 1018.40 1018.63 1018.84 1019.00 1019.13 1019.21 1019.24 1019.23 1019.19 1019.17 1019.17 1019.21 1019.31 1019.45
1006.11 1006.40 1006.80 1007.27 1007.79 1008.33 1008.87 1009.40 1009.91 1010.41 1010.92 1011.42 1011.93 1012.44 1012.94 1013.44 1013.92 1014.40 1014.85 1015.30 1015.73 1016.14 1016.55 1016.93 1017.28 1017.62 1017.92 1018.20 1018.45 1018.68 1018.90 1019.10 1019.26 1019.39 1019.48 1019.53 1019.54 1019.54 1019.54 1019.57 1019.63 1019.74 1019.88
1006.42 1006.71 1007.08 1007.51 1007.97 1008.44 1008.92 1009.41 1009.91 1010.43 1010.97 1011.53 1012.11 1012.68 1013.24 1013.77 1014.27 1014.74 1015.18 1015.61 1016.02 1016.42 1016.82 1017.20 1017.56 1017.89 1018.20 1018.47 1018.72 1018.93 1019.13 1019.31 1019.46 1019.59 1019.68 1019.75 1019.79 1019.83 1019.86 1019.91 1019.98 1020.10 1020.24
1006.62 1006.90 1007.26 1007.66 1008.08 1008.51 1008.96 1009.43 1009.93 1010.48 1011.07 1011.70 1012.34 1012.97 1013.58 1014.13 1014.64 1015.10 1015.51 1015.90 1016.28 1016.67 1017.05 1017.43 1017.80 1018.14 1018.45 1018.73 1018.96 1019.16 1019.34 1019.49 1019.62 1019.74 1019.84 1019.92 1020.00 1020.06 1020.12 1020.19 1020.28 1020.39 1020.51
1006.68 1006.97 1007.32 1007.72 1008.12 1008.54 1008.98 1009.46 1009.98 1010.56 1011.20 1011.88 1012.58 1013.26 1013.89 1014.46 1014.97 1015.40 1015.79 1016.15 1016.51 1016.87 1017.24 1017.63 1018.01 1018.37 1018.70 1018.98 1019.22 1019.40 1019.56 1019.68 1019.79 1019.89 1019.99 1020.08 1020.18 1020.27 1020.35 1020.44 1020.54 1020.64 1020.74
1006.59 1006.90 1007.28 1007.69 1008.11 1008.55 1009.01 1009.50 1010.05 1010.67 1011.34 1012.05 1012.78 1013.48 1014.13 1014.71 1015.20 1015.63 1016.00 1016.34 1016.68 1017.04 1017.42 1017.82 1018.23 1018.62 1018.97 1019.27 1019.51 1019.68 1019.82 1019.92 1020.00 1020.08 1020.17 1020.26 1020.37 1020.48 1020.58 1020.69 1020.78 1020.87 1020.95
1006.35 1006.71 1007.13 1007.58 1008.05 1008.53 1009.02 1009.55 1010.12 1010.76 1011.44 1012.16 1012.90 1013.60 1014.25 1014.83 1015.33 1015.75 1016.12 1016.47 1016.82 1017.19 1017.60 1018.03 1018.47 1018.89 1019.27 1019.59 1019.84 1020.01 1020.13 1020.20 1020.26 1020.32 1020.39 1020.48 1020.59 1020.71 1020.83 1020.94 1021.03 1021.11 1021.16
1005.97 1006.39 1006.87 1007.39 1007.92 1008.46 1009.01 1009.57 1010.17 1010.81 1011.49 1012.20 1012.91 1013.60 1014.25 1014.83 1015.33 1015.78 1016.17 1016.55 1016.94 1017.35 1017.79 1018.26 1018.73 1019.19 1019.60 1019.94 1020.20 1020.37 1020.48 1020.54 1020.57 1020.60 1020.65 1020.73 1020.83 1020.96 1021.08 1021.20 1021.29 1021.35 1021.37
1005.48 1005.94 1006.49 1007.09 1007.71 1008.32 1008.93 1009.54 1010.16 1010.80 1011.47 1012.15 1012.83 1013.50 1014.13 1014.72 1015.24 1015.73 1016.17 1016.61 1017.05 1017.51 1017.99 1018.50 1019.01 1019.49 1019.92 1020.28 1020.55 1020.73 1020.84 1020.88 1020.90 1020.91 1020.94 1021.00 1021.09 1021.20 1021.33 1021.44 1021.52 1021.57 1021.58
1004.87 1005.38 1005.99 1006.67 1007.37 1008.08 1008.76 1009.43 1010.08 1010.73 1011.37 1012.02 1012.67 1013.31 1013.93 1014.52 1015.08 1015.61 1016.13 1016.63 1017.13 1017.65 1018.17 1018.71 1019.24 1019.74 1020.19 1020.56 1020.84 1021.04 1021.15 1021.20 1021.21 1021.21 1021.22 1021.25 1021.32 1021.42 1021.53 1021.63 1021.70 1021.74 1021.73
1004.16 1004.70 1005.36 1006.11 1006.89 1007.69 1008.46 1009.20 1009.90 1010.56 1011.20 1011.82 1012.44 1013.05 1013.66 1014.26 1014.86 1015.45 1016.02 1016.59 1017.16 1017.72 1018.29 1018.84 1019.38 1019.89 1020.34 1020.73 1021.03 1021.25 1021.39 1021.46 1021.48 1021.47 1021.46 1021.47 1021.51 1021.58 1021.66 1021.74 1021.80 1021.82 1021.80
1003.39 1003.91 1004.59 1005.39 1006.25 1007.14 1008.01 1008.84 1009.60 1010.30 1010.95 1011.56 1012.15 1012.74 1013.34 1013.95 1014.57 1015.21 1015.84 1016.47 1017.08 1017.69 1018.28 1018.84 1019.39 1019.89 1020.35 1020.76 1021.09 1021.34 1021.52 1021.62 1021.67 1021.67 1021.65 1021.64 1021.64 1021.66 1021.70 1021.75 1021.78 1021.79 1021.76
1002.59 1003.06 1003.71 1004.53 1005.44 1006.42 1007.38 1008.31 1009.16 1009.92 1010.61 1011.23 1011.81 1012.38 1012.96 1013.57 1014.21 1014.87 1015.54 1016.21 1016.87 1017.50 1018.11 1018.68 1019.22 1019.73 1020.20 1020.63 1021.00 1021.31 1021.54 1021.69 1021.78 1021.80 1021.78 1021.74 1021.70 1021.67 1021.66 1021.66 1021.66 1021.64 1021.60
1001.79 1002.16 1002.76 1003.55 1004.49 1005.53 1006.59 1007.61 1008.56 1009.41 1010.15 1010.80 1011.38 1011.94 1012.51 1013.10 1013.74 1014.41 1015.11 1015.81 1016.49 1017.15 1017.77 1018.35 1018.89 1019.41 1019.91 1020.37 1020.79 1021.16 1021.46 1021.68 1021.82 1021.87 1021.85 1021.79 1021.70 1021.62 1021.54 1021.48 1021.44 1021.40 1021.34
1001.05 1001.28 1001.77 1002.50 1003.43 1004.49 1005.63 1006.75 1007.81 1008.75 1009.56 1010.24 1010.84 1011.40 1011.95 1012.53 1013.15 1013.82 1014.53 1015.25 1015.95 1016.63 1017.27 1017.87 1018.44 1018.97 1019.50 1020.00 1020.48 1020.92 1021.30 1021.59 1021.78 1021.87 1021.86 1021.78 1021.65 1021.51 1021.37 1021.25 1021.16 1021.08 1021.01
1000.40 1000.46 1000.80 1001.42 1002.29 1003.36 1004.53 1005.74 1006.89 1007.92 1008.81 1009.56 1010.18 1010.74 1011.28 1011.84 1012.44 1013.11 1013.82 1014.56 1015.29 1016.00 1016.67 1017.30 1017.90 1018.47 1019.03 1019.58 1020.11 1020.61 1021.05 1021.41 1021.66 1021.78 1021.79 1021.70 1021.54 1021.35 1021.15 1020.98 1020.84 1020.73 1020.65
999.87 999.74 999.89 1000.36 1001.14 1002.16 1003.35 1004.60 1005.83 1006.95 1007.92 1008.73 1009.40 1009.97 1010.51 1011.05 1011.65 1012.31 1013.03 1013.79 1014.56 1015.31 1016.02 1016.69 1017.33 1017.93 1018.53 1019.11 1019.68 1020.23 1020.72 1021.13 1021.43 1021.59 1021.62 1021.53 1021.36 1021.13 1020.89 1020.68 1020.50 1020.38 1020.28
999.47 999.13 999.08 999.37 1000.01 1000.94 1002.10 1003.37 1004.66 1005.85 1006.90 1007.78 1008.50 1009.10 1009.65 1010.21 1010.80 1011.47 1012.21 1013.00 1013.81 1014.61 1015.38 1016.09 1016.76 1017.40 1018.01 1018.61 1019.20 1019.77 1020.29 1020.73 1021.06 1021.26 1021.32 1021.25 1021.08 1020.85 1020.60 1020.37 1020.17 1020.03 1019.93
Thickness
5775 5777 5777 5774 5772 5769 5767 5766 5764 5763 5761 5759 5758 5756 5754 5752 5750 5748 5747 5746 5745 5743 5742 5740 5739 5737 5735 5733 5731 5729 5727 5725 5723 5722 5720 5719 5717 5716 5714 5712 5711 5710 5708
5779 5777 5775 5772 5769 5766 5764 5763 5761 5759 5757 5756 5754 5752 5751 5749 5747 5745 5744 5743 5741 5740 5738 5736 5734 5732 5730 5728 5726 5724 5722 5720 5718 5716 5715 5714 5712 5711 5709 5707 5706 5704 5702
5776 5773 5772 5769 5766 5763 5761 5759 5757 5755 5754 5752 5750 5749 5747 5745 5744 5742 5740 5739 5737 5736 5734 5732 5730 5728 5726 5724 5722 5720 5717 5715 5713 5711 5709 5708 5707 5706 5704 5702 5700 5698 5696
5771 5769 5767 5765 5762 5760 5757 5755 5753 5751 5750 5748 5746 5745 5743 5742 5740 5738 5737 5735 5733 5731 5729 5727 5725 5723 5721 5719 5717 5715 5712 5710 5707 5705 5704 5703 5701 5700 5698 5696 5694 5691 5689
5764 5763 5762 5760 5758 5755 5753 5751 5749 5747 5745 5744 5742 5741 5739 5738 5736 5734 5732 5731 5729 5727 5725 5722 5720 5718 5716 5714 5712 5709 5707 5704 5702 5700 5698 5697 5696 5694 5692 5689 5687 5685 5682
5758 5758 5757 5755 5753 5750 5748 5746 5744 5743 5741 5740 5738 5737 5735 5734 5732 5730 5728 5726 5724 5722 5720 5718 5716 5713 5711 5709 5707 5704 5702 5699 5697 5695 5693 5692 5690 5689 5686 5683 5681 5678 5675
5752 5752 5751 5750 5748 5745 5743 5741 5740 5738 5736 5735 5734 5732 5731 5729 5727 5725 5723 5721 5720 5718 5716 5713 5711 5709 5707 5705 5702 5699 5696 5694 5692 5690 5688 5686 5685 5683 5680 5677 5674 5671 5668
5745 5745 5745 5744 5742 5740 5738 5736 5735 5733 5732 5730 5729 5727 5726 5724 5722 5720 5718 5717 5715 5713 5711 5709 5707 5704 5702 5700 5697 5694 5691 5689 5687 5685 5683 5681 5679 5677 5673 5670 5667 5663 5660
5736 5737 5738 5737 5736 5734 5733 5731 5730 5728 5727 5726 5724 5722 5721 5719 5717 5716 5714 5712 5711 5709 5707 5704 5702 5700 5697 5695 5692 5689 5686 5684 5681 5679 5677 5675 5673 5670 5667 5663 5660 5656 5653
5727 5729 5730 5731 5730 5729 5728 5726 5725 5723 5722 5721 5719 5717 5716 5714 5712 5711 5709 5708 5706 5704 5702 5699 5697 5695 5692 5690 5687 5684 5681 5678 5676 5673 5671 5669 5667 5664 5660 5656 5653 5649 5645
5718 5721 5723 5724 5724 5723 5722 5721 5719 5718 5717 5715 5713 5712 5710 5709 5707 5705 5704 5702 5701 5699 5697 5694 5692 5689 5687 5685 5682 5679 5676 5673 5670 5668 5665 5663 5661 5658 5654 5650 5646 5642 5638
5713 5715 5718 5718 5718 5717 5716 5715 5714 5713 5712 5710 5708 5706 5705 5703 5702 5700 5698 5697 5695 5694 5692 5689 5686 5684 5682 5679 5677 5674 5671 5668 5665 5662 5660 5657 5655 5652 5648 5643 5639 5635 5631
5710 5710 5712 5713 5712 5712 5711 5710 5709 5708 5706 5705 5703 5701 5699 5698 5696 5694 5693 5691 5690 5688 5686 5683 5681 5678 5676 5674 5671 5668 5665 5662 5659 5656 5654 5651 5648 5645 5641 5637 5633 5628 5624
5701 5704 5706 5707 5706 5706 5705 5704 5703 5702 5701 5699 5698 5696 5694 5692 5690 5689 5687 5686 5684 5682 5680 5678 5675 5673 5671 5668 5666 5663 5660 5656 5653 5650 5648 5645 5642 5639 5635 5631 5627 5622 5618
5695 5698 5700 5700 5700 5700 5699 5698 5697 5697 5696 5694 5692 5691 5690 5688 5685 5683 5682 5680 5679 5677 5675 5672 5670 5667 5665 5663 5660 5657 5654 5651 5648 5645 5642 5639 5635 5632 5629 5625 5621 5616 5612
5690 5693 5694 5694 5695 5695 5694 5693 5693 5692 5691 5689 5688 5686 5685 5683 5681 5679 5677 5675 5674 5672 5670 5667 5665 5662 5659 5657 5654 5652 5648 5645 5642 5639 5636 5633 5629 5626 5622 5619 5614 5610 5606
5686 5688 5689 5689 5689 5688 5688 5688 5687 5686 5685 5684 5683 5681 5680 5679 5677 5675 5673 5671 5669 5667 5665 5662 5659 5657 5654 5651 5648 5646 5643 5639 5636 5633 5630 5627 5624 5620 5616 5612 5608 5604 5600
5678 5681 5683 5684 5683 5683 5683 5682 5682 5681 5680 5679 5678 5677 5676 5675 5673 5671 5668 5666 5665 5662 5660 5657 5654 5650 5648 5645 5642 5639 5637 5634 5631 5628 5625 5621 5618 5614 5610 5605 5601 5597 5593
5672 5675 5677 5679 5679 5678 5677 5677 5676 5676 5675 5675 5674 5673 5672 5671 5669 5667 5665 5663 5660 5658 5655 5652 5649 5646 5642 5639 5636 5633 5631 5628 5625 5622 5619 5616 5612 5608 5604 5599 5594 5590 5586
5666 5669 5672 5673 5674 5673 5671 5671 5670 5670 5670 5670 5670 5670 5668 5667 5665 5663 5661 5659 5656 5653 5650 5647 5644 5640 5637 5633 5631 5627 5624 5622 5619 5616 5613 5610 5606 5602 5598 5593 5588 5583 5579
5659 5663 5666 5669 5670 5669 5668 5668 5668 5667 5667 5667 5667 5666 5665 5664 5662 5660 5658 5655 5653 5650 5646 5643 5639 5635 5630 5627 5623 5620 5618 5616 5614 5611 5608 5604 5600 5596 5592 5587 5582 5577 5572
5656 5659 5662 5666 5668 5669 5669 5669 5667 5666 5664 5663 5663 5662 5661 5661 5659 5657 5655 5652 5650 5646 5642 5639 5636 5630 5626 5622 5619 5614 5610 5609 5608 5606 5602 5598 5594 5590 5586 5581 5576 5571 5566
5652 5657 5662 5665 5667 5667 5667 5664 5661 5658 5658 5657 5659 5660 5660 5659 5657 5655 5652 5650 5647 5644 5640 5636 5633 5628 5622 5617 5615 5611 5605 5602 5599 5599 5596 5592 5588 5584 5580 5575 5570 5565 5560
5651 5656 5660 5662 5663 5664 5664 5663 5662 5662 5663 5664 5662 5660 5657 5656 5654 5652 5650 5647 5644 5642 5638 5634 5630 5626 5621 5614 5609 5606 5603 5599 5595 5592 5589 5585 5582 5578 5573 5569 5564 5558 5553
5648 5652 5656 5658 5660 5661 5662 5664 5662 5663 5663 5661 5658 5656 5654 5653 5652 5650 5648 5645 5642 5639 5636 5632 5627 5623 5619 5613 5607 5602 5596 5591 5588 5585 5582 5579 5575 5572 5567 5562 5556 5551 5545
5642 5647 5651 5654 5658 5660 5661 5662 5663 5663 5661 5658 5657 5655 5653 5651 5649 5647 5646 5643 5640 5637 5634 5629 5625 5620 5615 5611 5606 5601 5595 5590 5584 5579 5575 5571 5567 5564 5560 5555 5549 5544 5538